{"data":{"norad_id":48572,"epoch":"2026-09-19T17:16:07.519872Z","epoch_age_seconds":104764,"freshness":"FRESH","line1":"1 48572U 21041V   26262.71953148  .00002417  00000+0  89572-4 0  9998","line2":"2 48572  53.1619 325.9379 0001320  86.2688 273.8464 15.31716092294683","mean_motion":15.31716092,"eccentricity":0.000132,"inclination_deg":53.1619,"raan_deg":325.9379,"arg_perigee_deg":86.2688,"mean_anomaly_deg":273.8464,"bstar":8.9572e-5,"rev_number":29468,"period_min":94.01220027138,"perigee_km":469.78798079951,"apogee_km":471.59607166244,"semimajor_km":6848.829026231,"source":"CELESTRAK","updated_at":"2026-09-20T09:00:39.134943Z"}}